Home   Weather   Fresnillo   Past weeks

Flag for Mexico Past Weather in Fresnillo, Zacatecas, Mexico — Yesterday and Last 2 Weeks

Now
90 °F

Scattered clouds.


Feels Like: 86 °F
Forecast: N/A
Wind: 17 mph from Southwest

Location: Zacatecas Airport

Current Time: May 25, 2017 at 6:46:14 pm

Latest Report: May 25, 2017 at 5:46 pm


Visibility: 8 mi

Pressure: 30.12 "Hg (23.58 "Hg at 2187m altitude)

Humidity: 13%

Dew Point: 32 °F

Location of FresnilloLocation

Past Weather in Fresnillo — Graph

°F

Fresnillo Temperature Yesterday

Maximum temperature yesterday: 86 °F (at 5:50 pm)
Minimum temperature yesterday: 57 °F (at 4:41 am)
Average temperature yesterday: 73 °F

High & Low Weather Summary for the Past Weeks

 TemperatureHumidityPressure
High91 °F (May 22, 4:42 pm)67% (May 13, 4:52 am)30.32 "Hg (May 13, 4:52 am)
Low46 °F (May 17, 6:41 am)10% (May 18, 7:09 pm)30.07 "Hg (May 19, 5:54 pm)
Average73 °F23%30.19 "Hg
* Reported May 10 4:46 pm — May 25 4:53 pm, Fresnillo. Weather by CustomWeather, © 2017

Note: Actual official high and low records may vary slightly from our data, if they occured in-between our weather recording intervals... More about our weather records

Advertising

Fresnillo Weather History for the Previous 24 Hours

Scroll right to see more
 ConditionsComfort  
Time TempWeatherWind HumidityBarometerVisibility
4:53 pm
Thu, May 25
88 °FPassing clouds.7 mph13%30.13 "Hg8 mi
3:46 pm86 °FPassing clouds.17 mph14%30.16 "Hg8 mi
2:46 pm86 °FPassing clouds.17 mph15%30.20 "Hg8 mi
1:48 pm84 °FPassing clouds.14 mph19%30.22 "Hg10 mi
1:01 pm82 °FSunny.13 mph19%30.23 "Hg10 mi
11:47 am79 °FSunny.14 mph28%30.25 "Hg10 mi
10:41 am73 °FSunny.17 mph36%30.25 "Hg10 mi
10:16 am72 °FSunny.15 mph38%30.25 "Hg10 mi
8:47 am64 °FSunny.12 mph46%30.23 "Hg10 mi
6:53 am57 °FClear.10 mph48%30.19 "Hg8 mi
5:41 am61 °FPassing clouds.7 mph42%30.18 "Hg8 mi
5:11 am61 °FPassing clouds.8 mph42%30.17 "Hg8 mi
12:41 am70 °FPassing clouds.No wind33%30.18 "Hg8 mi
11:43 pm
Wed, May 24
72 °FPassing clouds.No wind31%30.17 "Hg8 mi
11:00 pm73 °FPassing clouds.7 mph31%30.16 "Hg8 mi
10:00 pm73 °FPassing clouds.12 mph29%30.12 "Hg8 mi
8:46 pm79 °FPassing clouds.5 mph20%30.11 "Hg10 mi
7:52 pm82 °FPartly sunny.17 mph19%30.08 "Hg10 mi
Weather by CustomWeather, © 2017

See weather overviewHow to use our weather pages